Weather Roundup
Issued by NWS Chicago, IL

Home | Current Version | Previous Version | Graphics & Text | Print | Product List | Glossary On
Versions: 1 2 3 4 5 6 7 8 9 10 11 12 13 14 15 16 17 18 19 20 21 22 23 24 25 26 27 28 29 30 31 32 33 34 35 36 37 38 39 40 41 42 43 44 45 46 47 48 49 50
000
NZUS59 KLOT 020412
HRRLOT

CHICAGO AREA WEATHER ROUNDUP
NATIONAL WEATHER SERVICE CHICAGO/ROMEOVILLE IL
1100 PM CDT TUE SEP 01 2015

NOTE: "FAIR" INDICATES FEW OR NO CLOUDS BELOW 12,000 FEET WITH NO
SIGNIFICANT WEATHER AND/OR OBSTRUCTIONS TO VISIBILITY.

* THESE STATIONS ARE NOT UNDER NWS QUALITY CONTROL. THEY ALSO MAY NOT
  REPORT WEATHER SUCH AS PRECIPITATION OR FOG.

ILZ005-006-012>014-019>023-020500-
NORTHEAST ILLINOIS

CITY           SKY/WX    TMP DP  RH WIND       PRES   REMARKS
OHARE          PTCLDY    79  72  79 SW12      30.03R HX  82
MIDWAY         PTCLDY    80  71  74 SW10      30.03S HX  84
AURORA         CLEAR     77  71  82 S7        30.05R
LANSING*       CLEAR     75  70  83 SW8       30.05S
JOLIET*        CLEAR     78  71  79 SW5       30.04S HX  80
WAUKEGAN       CLEAR     78  72  81 S10       30.01S HX  80
DUPAGE AIRPORT CLEAR     77  71  82 S10       30.04R
WHEELING       CLEAR     80  72  76 S13       30.04R HX  84
KANKAKEE*      CLEAR     72  68  87 SW5       30.07S
MORRIS*        CLEAR     74  69  83 SW8       30.04S
LEWIS AIRPORT* CLEAR     75  70  83 SW8       30.05S
NORTHERLY IS     N/A     79  70  74 S12         N/A  HX  82
$$

WIZ051-052-058>065-066-070>072-020500-
SOUTHEAST WISCONSIN

CITY           SKY/WX    TMP DP  RH WIND       PRES   REMARKS
MILWAUKEE      MOCLDY    79  70  74 SW8       30.00S HX  82
KENOSHA*       CLEAR     77  72  84 SW7       30.02R
RACINE*        CLEAR     78  70  76 SW7       30.02S HX  80
BURLINGTON     PTCLDY    69  68  97 CALM      30.02S
WAUKESHA       PTCLDY    73  70  88 CALM      30.03R
WEST BEND      PTCLDY    72  68  88 CALM      30.00S
$$

INZ001>003-010>013-019-020-020500-
NORTHWEST INDIANA

CITY           SKY/WX    TMP DP  RH WIND       PRES   REMARKS
GARY*          CLEAR     79  69  72 S5        30.05S HX  82
MICHIGAN CITY* NOT AVBL
RENSSELAER*    NOT AVBL
VALPARAISO     CLEAR     73  69  87 S5        30.07S
$$

LMZ740>746-020500-
SOUTHERN LAKE MICHIGAN

STATION/POSITION TIME  SKY/WX   TEMP WIND        PRES    VSBY
                                AIR  DIR/SP/G
                 (UTC)          (F)  (DEG/KT/KT) (MB)    (MI)
HARRISON CRIB    0400            78  210/ 19/ 26   N/A
BURNHAM HARBOR   0400            79  220/  8/ 13   N/A
CALUMET HARBOR   0300            79  190/  7/  9   N/A
BURNS HARBOR     0300            77  190/ 11/ 14 1017.9R
MICHIGAN CITY    0300            77  170/ 12/ 14   N/A
$$

ABBREVIATIONS USED IN REMARKS
   TC - TEMPERATURE IN CELSIUS
  WCI - WIND CHILL INDEX
   HX - HEAT INDEX
  VSB - VISIBILITY
$$



USA.gov is the U.S. government's official web portal to all federal, state and local government web resources and services.